| time (UTC) | temp C | wind direction | speed KPH | gust KPH | rain 1hr cm | rain 24hr cm | rain mn cm | humidity % | barometer mb |
| 20260507174503 | 21 | 86 | 1.6 | 11.3 | 0.00 | 0.00 | 0.00 | 56 | 1009.6 |
| 20260507174003 | 21 | 73 | 4.8 | 8.0 | 0.00 | 0.00 | 0.00 | 56 | 1009.5 |
| 20260507173504 | 21 | 84 | 4.8 | 14.5 | 0.00 | 0.00 | 0.00 | 56 | 1009.4 |
| 20260507173004 | 21 | 56 | 6.4 | 14.5 | 0.00 | 0.00 | 0.00 | 56 | 1009.3 |
| 20260507172504 | 21 | 62 | 8.0 | 19.3 | 0.00 | 0.00 | 0.00 | 56 | 1009.4 |
| 20260507172004 | 21 | 70 | 8.0 | 14.5 | 0.00 | 0.00 | 0.00 | 56 | 1009.4 |
| 20260507171503 | 21 | 60 | 9.7 | 16.1 | 0.00 | 0.00 | 0.00 | 56 | 1009.5 |
| 20260507171004 | 21 | 54 | 4.8 | 14.5 | 0.00 | 0.00 | 0.00 | 57 | 1009.5 |
| 20260507170503 | 21 | 62 | 4.8 | 19.3 | 0.00 | 0.00 | 0.00 | 57 | 1009.6 |
| 20260507170004 | 21 | 68 | 4.8 | 16.1 | 0.00 | 0.00 | 0.00 | 58 | 1009.5 |
| 20260507165004 | 21 | 62 | 6.4 | 16.1 | 0.00 | 0.00 | 0.00 | 58 | 1009.8 |
| 20260507164504 | 21 | 76 | 4.8 | 12.9 | 0.00 | 0.00 | 0.00 | 59 | 1009.8 |
| 20260507164004 | 21 | 66 | 6.4 | 14.5 | 0.00 | 0.00 | 0.00 | 59 | 1009.9 |
| 20260507163504 | 21 | 72 | 4.8 | 14.5 | 0.00 | 0.00 | 0.00 | 59 | 1009.7 |
| 20260507162503 | 21 | 21 | 4.8 | 12.9 | 0.00 | 0.00 | 0.00 | 59 | 1009.7 |
| 20260507162004 | 21 | 39 | 4.8 | 16.1 | 0.00 | 0.00 | 0.00 | 58 | 1009.7 |
| 20260507161504 | 21 | 58 | 8.0 | 24.1 | 0.00 | 0.00 | 0.00 | 58 | 1009.9 |
| 20260507161003 | 21 | 64 | 11.3 | 20.9 | 0.00 | 0.00 | 0.00 | 58 | 1009.7 |
| 20260507160503 | 21 | 64 | 8.0 | 19.3 | 0.00 | 0.00 | 0.00 | 58 | 1009.8 |
| 20260507160003 | 21 | 52 | 6.4 | 14.5 | 0.00 | 0.00 | 0.00 | 57 | 1010.0 |
| 20260507155504 | 21 | 76 | 6.4 | 14.5 | 0.00 | 0.00 | 0.00 | 57 | 1010.0 |
| 20260507155004 | 21 | 45 | 3.2 | 14.5 | 0.00 | 0.00 | 0.00 | 56 | 1010.0 |
| 20260507154504 | 21 | 63 | 9.7 | 19.3 | 0.00 | 0.00 | 0.00 | 55 | 1010.0 |
| 20260507154003 | 21 | 66 | 8.0 | 19.3 | 0.00 | 0.00 | 0.00 | 56 | 1009.8 |
| 20260507153504 | 21 | 62 | 9.7 | 22.5 | 0.00 | 0.00 | 0.00 | 55 | 1009.7 |
| 20260507153004 | 21 | 57 | 6.4 | 24.1 | 0.00 | 0.00 | 0.00 | 56 | 1009.8 |
| 20260507152504 | 21 | 72 | 6.4 | 16.1 | 0.00 | 0.00 | 0.00 | 57 | 1009.9 |
| 20260507152003 | 21 | 55 | 6.4 | 16.1 | 0.00 | 0.00 | 0.00 | 58 | 1010.0 |
| 20260507151503 | 21 | 55 | 4.8 | 12.9 | 0.00 | 0.00 | 0.00 | 58 | 1010.2 |
| 20260507151004 | 21 | 66 | 8.0 | 14.5 | 0.00 | 0.00 | 0.00 | 58 | 1010.3 |
| 20260507150503 | 21 | 60 | 4.8 | 22.5 | 0.00 | 0.00 | 0.00 | 58 | 1010.3 |
| 20260507145503 | 21 | 67 | 4.8 | 19.3 | 0.00 | 0.00 | 0.00 | 59 | 1010.1 |
| 20260507145004 | 22 | 66 | 8.0 | 19.3 | 0.00 | 0.00 | 0.00 | 58 | 1010.1 |
| 20260507144004 | 21 | 44 | 9.7 | 24.1 | 0.00 | 0.00 | 0.00 | 58 | 1010.1 |
| 20260507143503 | 22 | 49 | 8.0 | 19.3 | 0.00 | 0.00 | 0.00 | 58 | 1010.2 |
| 20260507143004 | 22 | 39 | 9.7 | 19.3 | 0.00 | 0.00 | 0.00 | 58 | 1010.1 |
| 20260507142504 | 22 | 66 | 9.7 | 20.9 | 0.00 | 0.00 | 0.00 | 57 | 1010.1 |
| 20260507142003 | 22 | 49 | 9.7 | 19.3 | 0.00 | 0.00 | 0.00 | 57 | 1010.1 |
| 20260507141003 | 22 | 70 | 11.3 | 20.9 | 0.00 | 0.00 | 0.00 | 55 | 1010.1 |
| 20260507140503 | 22 | 80 | 6.4 | 19.3 | 0.00 | 0.00 | 0.00 | 55 | 1009.9 |
| 20260507135504 | 22 | 68 | 6.4 | 16.1 | 0.00 | 0.00 | 0.00 | 55 | 1010.1 |
| 20260507135004 | 22 | 59 | 4.8 | 14.5 | 0.00 | 0.00 | 0.00 | 56 | 1010.2 |
| 20260507134003 | 22 | 158 | 3.2 | 9.7 | 0.00 | 0.00 | 0.00 | 56 | 1010.5 |
| 20260507133504 | 22 | 157 | 4.8 | 9.7 | 0.00 | 0.00 | 0.00 | 56 | 1010.5 |
| 20260507132504 | 22 | 176 | 4.8 | 11.3 | 0.00 | 0.00 | 0.00 | 57 | 1010.5 |
| 20260507132004 | 22 | 179 | 8.0 | 11.3 | 0.00 | 0.00 | 0.00 | 56 | 1010.5 |
| 20260507131003 | 22 | 167 | 6.4 | 11.3 | 0.00 | 0.00 | 0.00 | 57 | 1010.7 |
| 20260507130504 | 22 | 155 | 3.2 | 8.0 | 0.00 | 0.00 | 0.00 | 56 | 1010.6 |
| 20260507130004 | 22 | 148 | 6.4 | 11.3 | 0.00 | 0.00 | 0.00 | 56 | 1010.6 |
| 20260507125004 | 22 | 120 | 4.8 | 12.9 | 0.00 | 0.00 | 0.00 | 57 | 1010.4 |
| 20260507124504 | 22 | 163 | 3.2 | 11.3 | 0.00 | 0.00 | 0.00 | 57 | 1010.6 |
| 20260507124004 | 22 | 175 | 4.8 | 9.7 | 0.00 | 0.03 | 0.00 | 57 | 1010.6 |
| 20260507123004 | 22 | 185 | 8.0 | 12.9 | 0.00 | 0.03 | 0.00 | 57 | 1010.7 |
| 20260507122504 | 22 | 163 | 8.0 | 11.3 | 0.00 | 0.05 | 0.00 | 56 | 1010.7 |
| 20260507121504 | 22 | 179 | 4.8 | 11.3 | 0.00 | 0.05 | 0.00 | 57 | 1010.7 |
| 20260507121004 | 22 | 158 | 8.0 | 11.3 | 0.00 | 0.05 | 0.00 | 57 | 1010.8 |
| 20260507120504 | 22 | 190 | 4.8 | 9.7 | 0.00 | 0.05 | 0.00 | 58 | 1010.8 |
| 20260507120005 | 22 | 182 | 4.8 | 14.5 | 0.00 | 0.05 | 0.00 | 58 | 1010.9 |
| 20260507115004 | 22 | 180 | 6.4 | 12.9 | 0.00 | 0.05 | 0.00 | 57 | 1010.8 |
| 20260507114004 | 22 | 170 | 4.8 | 11.3 | 0.00 | 0.05 | 0.00 | 58 | 1011.0 |
| 20260507113504 | 22 | 186 | 4.8 | 11.3 | 0.00 | 0.05 | 0.00 | 57 | 1011.1 |
| 20260507113004 | 22 | 182 | 4.8 | 12.9 | 0.00 | 0.05 | 0.00 | 55 | 1011.0 |
| 20260507112504 | 22 | 180 | 4.8 | 11.3 | 0.00 | 0.05 | 0.00 | 55 | 1011.0 |
| 20260507112004 | 22 | 163 | 6.4 | 14.5 | 0.00 | 0.05 | 0.00 | 55 | 1011.0 |
| 20260507111504 | 22 | 162 | 6.4 | 9.7 | 0.00 | 0.05 | 0.00 | 53 | 1011.1 |
| 20260507111004 | 23 | 152 | 6.4 | 12.9 | 0.00 | 0.05 | 0.00 | 54 | 1011.1 |
| 20260507110504 | 23 | 128 | 3.2 | 8.0 | 0.00 | 0.05 | 0.00 | 52 | 1011.2 |
| 20260507110003 | 23 | 133 | 4.8 | 9.7 | 0.00 | 0.05 | 0.00 | 54 | 1011.2 |
| 20260507105504 | 23 | 182 | 3.2 | 11.3 | 0.00 | 0.05 | 0.00 | 54 | 1011.3 |
| 20260507105004 | 23 | 147 | 6.4 | 11.3 | 0.00 | 0.05 | 0.00 | 53 | 1011.2 |
| 20260507104504 | 22 | 163 | 3.2 | 9.7 | 0.00 | 0.05 | 0.00 | 56 | 1011.2 |
| 20260507104004 | 22 | 153 | 6.4 | 11.3 | 0.00 | 0.05 | 0.00 | 58 | 1011.3 |
| 20260507103504 | 22 | 183 | 8.0 | 11.3 | 0.00 | 0.05 | 0.00 | 57 | 1011.4 |
| 20260507103004 | 22 | 183 | 4.8 | 9.7 | 0.00 | 0.05 | 0.00 | 58 | 1011.4 |
| 20260507102504 | 23 | 162 | 8.0 | 11.3 | 0.00 | 0.05 | 0.00 | 57 | 1011.5 |
| 20260507101503 | 23 | 175 | 4.8 | 12.9 | 0.00 | 0.05 | 0.00 | 58 | 1011.5 |
| 20260507101004 | 23 | 124 | 3.2 | 8.0 | 0.00 | 0.05 | 0.00 | 57 | 1011.5 |
| 20260507100504 | 22 | 130 | 4.8 | 11.3 | 0.00 | 0.05 | 0.00 | 55 | 1011.5 |
| 20260507100004 | 22 | 151 | 3.2 | 4.8 | 0.00 | 0.05 | 0.00 | 58 | 1011.5 |
| 20260507095004 | 22 | 172 | 4.8 | 11.3 | 0.00 | 0.05 | 0.00 | 60 | 1011.6 |
| 20260507094504 | 22 | 118 | 4.8 | 9.7 | 0.00 | 0.05 | 0.00 | 62 | 1011.5 |
| 20260507094004 | 22 | 109 | 3.2 | 4.8 | 0.00 | 0.05 | 0.00 | 61 | 1011.6 |
| 20260507093504 | 22 | 122 | 1.6 | 9.7 | 0.00 | 0.05 | 0.00 | 65 | 1011.7 |
| 20260507093004 | 21 | 125 | 4.8 | 9.7 | 0.00 | 0.05 | 0.00 | 66 | 1011.7 |
| 20260507092504 | 21 | 358 | 8.0 | 12.9 | 0.00 | 0.05 | 0.00 | 66 | 1011.8 |
| 20260507092003 | 21 | 23 | 4.8 | 11.3 | 0.00 | 0.05 | 0.00 | 69 | 1011.9 |
| 20260507091004 | 20 | 186 | 3.2 | 8.0 | 0.00 | 0.05 | 0.00 | 73 | 1012.0 |
| 20260507090504 | 20 | 161 | 3.2 | 8.0 | 0.00 | 0.05 | 0.00 | 73 | 1011.9 |
| 20260507090004 | 19 | 161 | 3.2 | 8.0 | 0.00 | 0.05 | 0.00 | 75 | 1011.9 |
| 20260507085503 | 19 | 160 | 3.2 | 9.7 | 0.00 | 0.05 | 0.00 | 75 | 1011.9 |
| 20260507085004 | 19 | 146 | 4.8 | 9.7 | 0.00 | 0.05 | 0.00 | 75 | 1012.1 |
| 20260507084503 | 19 | 179 | 6.4 | 11.3 | 0.00 | 0.05 | 0.00 | 76 | 1012.0 |
| 20260507083504 | 19 | 150 | 6.4 | 12.9 | 0.00 | 0.05 | 0.00 | 75 | 1011.9 |
| 20260507082504 | 20 | 114 | 8.0 | 14.5 | 0.00 | 0.05 | 0.00 | 71 | 1011.7 |
| 20260507082004 | 20 | 132 | 8.0 | 12.9 | 0.00 | 0.05 | 0.00 | 71 | 1011.7 |
| 20260507081504 | 20 | 144 | 3.2 | 4.8 | 0.00 | 0.05 | 0.00 | 71 | 1011.6 |
| 20260507081004 | 20 | 236 | 3.2 | 4.8 | 0.00 | 0.05 | 0.00 | 73 | 1011.6 |
| 20260507080503 | 19 | 254 | 1.6 | 4.8 | 0.00 | 0.05 | 0.00 | 74 | 1011.6 |
| 20260507075503 | 18 | 278 | 0.0 | 3.2 | 0.00 | 0.05 | 0.00 | 78 | 1011.6 |
| 20260507074504 | 18 | 278 | 0.0 | 0.0 | 0.00 | 0.05 | 0.00 | 81 | 1011.7 |
| 20260507074004 | 18 | 278 | 0.0 | 4.8 | 0.00 | 0.05 | 0.00 | 82 | 1011.7 |
| 20260507073503 | 17 | 278 | 0.0 | 3.2 | 0.00 | 0.05 | 0.00 | 83 | 1012.0 |
| 20260507072503 | 17 | 278 | 3.2 | 4.8 | 0.00 | 0.05 | 0.00 | 85 | 1012.2 |
| 20260507072004 | 17 | 278 | 1.6 | 4.8 | 0.00 | 0.05 | 0.00 | 86 | 1012.2 |
| 20260507071504 | 17 | 279 | 4.8 | 4.8 | 0.00 | 0.05 | 0.00 | 86 | 1012.0 |
| 20260507070504 | 16 | 315 | 3.2 | 4.8 | 0.00 | 0.05 | 0.00 | 87 | 1011.9 |
| 20260507065504 | 16 | 325 | 4.8 | 8.0 | 0.00 | 0.05 | 0.00 | 88 | 1011.9 |
| 20260507065003 | 16 | 299 | 6.4 | 11.3 | 0.00 | 0.05 | 0.00 | 88 | 1011.8 |
| 20260507064004 | 16 | 265 | 6.4 | 12.9 | 0.00 | 0.05 | 0.00 | 88 | 1011.8 |
| 20260507063504 | 15 | 286 | 4.8 | 9.7 | 0.00 | 0.05 | 0.00 | 89 | 1011.8 |
| 20260507061504 | 15 | 271 | 3.2 | 4.8 | 0.00 | 0.05 | 0.00 | 89 | 1011.5 |
| 20260507061004 | 15 | 271 | 4.8 | 11.3 | 0.00 | 0.05 | 0.00 | 89 | 1011.4 |
| 20260507060504 | 15 | 290 | 3.2 | 8.0 | 0.00 | 0.05 | 0.00 | 89 | 1011.4 |
| 20260507060004 | 15 | 281 | 8.0 | 11.3 | 0.00 | 0.05 | 0.00 | 89 | 1011.3 |
| 20260507055504 | 15 | 285 | 8.0 | 11.3 | 0.00 | 0.05 | 0.00 | 90 | 1011.3 |
| 20260507055004 | 15 | 275 | 4.8 | 9.7 | 0.00 | 0.05 | 0.00 | 90 | 1011.4 |
| 20260507054504 | 15 | 276 | 4.8 | 9.7 | 0.00 | 0.05 | 0.00 | 90 | 1011.4 |
| 20260507054004 | 14 | 267 | 4.8 | 11.3 | 0.00 | 0.05 | 0.00 | 90 | 1011.4 |
| 20260507053503 | 14 | 270 | 8.0 | 12.9 | 0.00 | 0.05 | 0.00 | 90 | 1011.4 |
| 20260507053005 | 14 | 294 | 6.4 | 11.3 | 0.00 | 0.05 | 0.00 | 90 | 1011.3 |
| 20260507052504 | 14 | 258 | 6.4 | 11.3 | 0.00 | 0.05 | 0.00 | 90 | 1011.4 |
| 20260507052003 | 14 | 284 | 8.0 | 12.9 | 0.00 | 0.05 | 0.00 | 90 | 1011.3 |
| 20260507051504 | 14 | 280 | 4.8 | 4.8 | 0.00 | 0.05 | 0.00 | 90 | 1011.1 |
| 20260507051003 | 14 | 282 | 3.2 | 4.8 | 0.00 | 0.05 | 0.00 | 90 | 1011.1 |
| 20260507050504 | 14 | 282 | 3.2 | 4.8 | 0.00 | 0.05 | 0.00 | 90 | 1011.0 |
| 20260507050003 | 14 | 281 | 3.2 | 9.7 | 0.00 | 0.05 | 0.00 | 90 | 1011.1 |
| 20260507045504 | 14 | 281 | 3.2 | 4.8 | 0.00 | 0.05 | 0.00 | 91 | 1011.0 |
| 20260507043004 | 14 | 279 | 3.2 | 4.8 | 0.00 | 0.05 | 0.00 | 90 | 1011.5 |
| 20260507042504 | 13 | 279 | 3.2 | 9.7 | 0.00 | 0.05 | 0.00 | 90 | 1011.5 |
| 20260507041004 | 14 | 295 | 8.0 | 12.9 | 0.00 | 0.05 | 0.00 | 89 | 1011.0 |
| 20260507040504 | 14 | 280 | 4.8 | 9.7 | 0.00 | 0.05 | 0.00 | 89 | 1010.8 |
| 20260507040004 | 14 | 291 | 3.2 | 4.8 | 0.00 | 0.05 | 0.00 | 89 | 1010.7 |
| 20260507035504 | 15 | 291 | 1.6 | 4.8 | 0.00 | 0.05 | 0.00 | 89 | 1010.9 |
| 20260507035004 | 15 | 288 | 3.2 | 4.8 | 0.00 | 0.05 | 0.00 | 89 | 1011.0 |
| 20260507034504 | 15 | 288 | 1.6 | 4.8 | 0.00 | 0.05 | 0.00 | 89 | 1011.1 |
| 20260507034004 | 15 | 288 | 1.6 | 4.8 | 0.00 | 0.05 | 0.00 | 89 | 1011.1 |
| 20260507033503 | 15 | 286 | 1.6 | 3.2 | 0.00 | 0.05 | 0.00 | 89 | 1011.2 |
| 20260507033004 | 15 | 287 | 1.6 | 4.8 | 0.00 | 0.05 | 0.00 | 89 | 1011.2 |
| 20260507032504 | 15 | 306 | 1.6 | 3.2 | 0.00 | 0.05 | 0.00 | 89 | 1011.1 |
| 20260507032004 | 15 | 306 | 1.6 | 4.8 | 0.00 | 0.05 | 0.00 | 89 | 1011.0 |
| 20260507031503 | 15 | 311 | 1.6 | 4.8 | 0.00 | 0.05 | 0.00 | 89 | 1011.0 |
| 20260507031004 | 15 | 43 | 3.2 | 4.8 | 0.00 | 0.05 | 0.00 | 89 | 1011.0 |
| 20260507030504 | 15 | 44 | 1.6 | 4.8 | 0.00 | 0.05 | 0.00 | 89 | 1011.2 |
| 20260507030004 | 15 | 44 | 0.0 | 0.0 | 0.00 | 0.05 | 0.00 | 89 | 1011.2 |
| 20260507025503 | 15 | 44 | 0.0 | 0.0 | 0.00 | 0.05 | 0.00 | 88 | 1011.3 |
| 20260507025004 | 15 | 44 | 0.0 | 1.6 | 0.00 | 0.05 | 0.00 | 88 | 1011.2 |
| 20260507024503 | 15 | 44 | 0.0 | 1.6 | 0.00 | 0.05 | 0.00 | 88 | 1011.2 |
| 20260507024004 | 15 | 44 | 0.0 | 4.8 | 0.00 | 0.05 | 0.00 | 88 | 1011.2 |
| 20260507023004 | 15 | 59 | 0.0 | 3.2 | 0.00 | 0.05 | 0.00 | 88 | 1011.1 |
| 20260507022504 | 15 | 59 | 1.6 | 3.2 | 0.00 | 0.05 | 0.00 | 88 | 1011.1 |
| 20260507022003 | 16 | 59 | 3.2 | 4.8 | 0.00 | 0.05 | 0.00 | 88 | 1011.2 |
| 20260507021504 | 16 | 286 | 0.0 | 3.2 | 0.00 | 0.05 | 0.00 | 88 | 1011.2 |
| 20260507021004 | 16 | 286 | 0.0 | 1.6 | 0.00 | 0.05 | 0.00 | 88 | 1011.2 |
| 20260507020504 | 16 | 286 | 0.0 | 1.6 | 0.00 | 0.05 | 0.00 | 88 | 1011.3 |
| 20260507015504 | 16 | 286 | 0.0 | 0.0 | 0.00 | 0.05 | 0.00 | 88 | 1011.2 |
| 20260507015004 | 16 | 286 | 0.0 | 1.6 | 0.00 | 0.05 | 0.00 | 88 | 1011.2 |
| 20260507014004 | 16 | 286 | 0.0 | 1.6 | 0.00 | 0.05 | 0.00 | 88 | 1011.3 |
| 20260507013004 | 16 | 286 | 0.0 | 3.2 | 0.00 | 0.05 | 0.00 | 88 | 1011.3 |
| 20260507012504 | 16 | 286 | 1.6 | 4.8 | 0.00 | 0.05 | 0.00 | 88 | 1011.3 |
| 20260507012003 | 16 | 286 | 3.2 | 4.8 | 0.00 | 0.05 | 0.00 | 88 | 1011.3 |
| 20260507011004 | 16 | 284 | 3.2 | 9.7 | 0.00 | 0.05 | 0.00 | 88 | 1011.5 |
| 20260507010004 | 16 | 289 | 4.8 | 11.3 | 0.00 | 0.05 | 0.00 | 88 | 1011.5 |
| 20260507005504 | 16 | 302 | 3.2 | 11.3 | 0.00 | 0.05 | 0.00 | 88 | 1011.6 |
| 20260507005003 | 16 | 289 | 4.8 | 9.7 | 0.00 | 0.05 | 0.00 | 88 | 1011.6 |
| 20260507004504 | 16 | 292 | 4.8 | 12.9 | 0.00 | 0.05 | 0.00 | 88 | 1011.6 |
| 20260507004003 | 16 | 289 | 3.2 | 4.8 | 0.00 | 0.05 | 0.00 | 88 | 1011.6 |
| 20260507003504 | 16 | 288 | 4.8 | 8.0 | 0.00 | 0.05 | 0.00 | 88 | 1011.6 |
| 20260507002504 | 16 | 292 | 3.2 | 9.7 | 0.00 | 0.05 | 0.00 | 89 | 1011.7 |
| 20260507002004 | 16 | 320 | 3.2 | 4.8 | 0.00 | 0.05 | 0.00 | 89 | 1011.7 |
| 20260507001504 | 16 | 322 | 1.6 | 8.0 | 0.00 | 0.05 | 0.00 | 89 | 1011.7 |
| 20260507001003 | 16 | 321 | 4.8 | 8.0 | 0.00 | 0.05 | 0.00 | 88 | 1011.9 |
| 20260507000504 | 16 | 320 | 3.2 | 4.8 | 0.00 | 0.05 | 0.00 | 88 | 1011.9 |
| 20260507000004 | 16 | 315 | 3.2 | 4.8 | 0.00 | 0.05 | 0.00 | 88 | 1012.1 |
| 20260506235504 | 16 | 315 | 1.6 | 4.8 | 0.00 | 0.05 | 0.00 | 88 | 1012.1 |
| 20260506235003 | 16 | 315 | 3.2 | 4.8 | 0.00 | 0.05 | 0.00 | 88 | 1012.2 |
| 20260506234504 | 16 | 315 | 3.2 | 4.8 | 0.00 | 0.05 | 0.00 | 88 | 1012.2 |
| 20260506234003 | 16 | 303 | 3.2 | 4.8 | 0.00 | 0.05 | 0.00 | 88 | 1012.2 |
| 20260506233504 | 16 | 303 | 1.6 | 4.8 | 0.00 | 0.05 | 0.00 | 88 | 1012.3 |
| 20260506233003 | 17 | 302 | 1.6 | 3.2 | 0.00 | 0.05 | 0.00 | 88 | 1012.4 |
| 20260506231504 | 17 | 302 | 1.6 | 4.8 | 0.00 | 0.05 | 0.00 | 88 | 1012.3 |
| 20260506231004 | 17 | 302 | 3.2 | 4.8 | 0.00 | 0.05 | 0.00 | 88 | 1012.4 |
| 20260506230003 | 17 | 302 | 1.6 | 4.8 | 0.00 | 0.05 | 0.00 | 88 | 1012.4 |
| 20260506225504 | 17 | 302 | 3.2 | 4.8 | 0.00 | 0.05 | 0.00 | 88 | 1012.4 |
| 20260506225003 | 17 | 340 | 3.2 | 4.8 | 0.00 | 0.05 | 0.00 | 88 | 1012.3 |
| 20260506224003 | 17 | 350 | 1.6 | 4.8 | 0.00 | 0.05 | 0.00 | 87 | 1012.1 |
| 20260506223504 | 17 | 351 | 4.8 | 8.0 | 0.00 | 0.05 | 0.00 | 87 | 1012.1 |
| 20260506223004 | 17 | 12 | 4.8 | 4.8 | 0.00 | 0.05 | 0.00 | 87 | 1012.1 |
| 20260506222504 | 17 | 16 | 1.6 | 4.8 | 0.00 | 0.05 | 0.00 | 87 | 1012.1 |
| 20260506221504 | 17 | 19 | 3.2 | 4.8 | 0.00 | 0.05 | 0.00 | 86 | 1012.1 |
| 20260506221004 | 17 | 22 | 1.6 | 4.8 | 0.00 | 0.05 | 0.00 | 86 | 1012.1 |
| 20260506220504 | 17 | 24 | 3.2 | 4.8 | 0.00 | 0.05 | 0.00 | 86 | 1012.1 |
| 20260506220003 | 17 | 112 | 1.6 | 4.8 | 0.00 | 0.05 | 0.00 | 86 | 1012.1 |
| 20260506215004 | 17 | 115 | 1.6 | 4.8 | 0.00 | 0.05 | 0.05 | 86 | 1012.1 |
| 20260506214504 | 17 | 114 | 3.2 | 4.8 | 0.00 | 0.05 | 0.05 | 86 | 1012.2 |
| 20260506214004 | 17 | 106 | 4.8 | 4.8 | 0.00 | 0.05 | 0.05 | 86 | 1012.2 |
| 20260506213504 | 17 | 125 | 3.2 | 11.3 | 0.00 | 0.05 | 0.05 | 86 | 1012.4 |
| 20260506213004 | 17 | 140 | 3.2 | 8.0 | 0.00 | 0.05 | 0.05 | 86 | 1012.4 |
| 20260506212503 | 17 | 133 | 3.2 | 14.5 | 0.00 | 0.05 | 0.05 | 86 | 1012.4 |
| 20260506212003 | 17 | 133 | 4.8 | 11.3 | 0.00 | 0.05 | 0.05 | 86 | 1012.4 |
| 20260506211504 | 17 | 132 | 4.8 | 14.5 | 0.00 | 0.05 | 0.05 | 86 | 1012.5 |
| 20260506210503 | 17 | 228 | 1.6 | 8.0 | 0.00 | 0.05 | 0.05 | 86 | 1012.4 |
| 20260506210004 | 17 | 228 | 3.2 | 4.8 | 0.00 | 0.05 | 0.05 | 86 | 1012.3 |
| 20260506205503 | 17 | 229 | 3.2 | 4.8 | 0.00 | 0.05 | 0.05 | 86 | 1012.2 |
| 20260506204504 | 17 | 207 | 1.6 | 4.8 | 0.00 | 0.05 | 0.05 | 86 | 1012.3 |
| 20260506204004 | 17 | 207 | 3.2 | 8.0 | 0.00 | 0.05 | 0.05 | 86 | 1012.2 |
| 20260506203504 | 17 | 236 | 3.2 | 9.7 | 0.00 | 0.05 | 0.05 | 86 | 1011.8 |
| 20260506203004 | 17 | 240 | 0.0 | 0.0 | 0.00 | 0.05 | 0.05 | 86 | 1011.8 |
| 20260506202504 | 17 | 240 | 0.0 | 3.2 | 0.00 | 0.05 | 0.05 | 86 | 1011.8 |
| 20260506201504 | 17 | 240 | 4.8 | 8.0 | 0.00 | 0.05 | 0.05 | 85 | 1011.8 |
| 20260506201004 | 17 | 245 | 3.2 | 4.8 | 0.00 | 0.05 | 0.05 | 85 | 1011.8 |
| 20260506200504 | 17 | 334 | 0.0 | 3.2 | 0.00 | 0.05 | 0.05 | 85 | 1011.7 |
| 20260506200004 | 17 | 334 | 1.6 | 4.8 | 0.00 | 0.05 | 0.05 | 85 | 1011.6 |
| 20260506195504 | 17 | 334 | 1.6 | 9.7 | 0.00 | 0.05 | 0.05 | 85 | 1011.2 |
| 20260506195004 | 17 | 315 | 4.8 | 11.3 | 0.00 | 0.05 | 0.05 | 85 | 1011.3 |
| 20260506194504 | 17 | 144 | 1.6 | 4.8 | 0.00 | 0.05 | 0.05 | 85 | 1011.4 |
| 20260506194004 | 17 | 144 | 0.0 | 4.8 | 0.00 | 0.05 | 0.05 | 85 | 1011.5 |
| 20260506193503 | 17 | 144 | 1.6 | 3.2 | 0.00 | 0.05 | 0.05 | 85 | 1011.5 |
| 20260506193003 | 17 | 144 | 1.6 | 4.8 | 0.00 | 0.05 | 0.05 | 85 | 1011.7 |
| 20260506192503 | 17 | 144 | 3.2 | 4.8 | 0.00 | 0.05 | 0.05 | 85 | 1011.7 |
| 20260506192003 | 17 | 144 | 1.6 | 8.0 | 0.00 | 0.05 | 0.05 | 85 | 1011.7 |
| 20260506191503 | 17 | 157 | 3.2 | 8.0 | 0.00 | 0.05 | 0.05 | 85 | 1011.7 |
| 20260506191003 | 17 | 144 | 4.8 | 9.7 | 0.00 | 0.05 | 0.05 | 85 | 1011.7 |
| 20260506190503 | 17 | 151 | 3.2 | 9.7 | 0.00 | 0.05 | 0.05 | 86 | 1011.8 |
| 20260506190004 | 17 | 163 | 4.8 | 9.7 | 0.00 | 0.05 | 0.05 | 86 | 1011.9 |
| 20260506185003 | 17 | 168 | 3.2 | 12.9 | 0.00 | 0.05 | 0.05 | 86 | 1012.0 |
| 20260506184503 | 17 | 157 | 6.4 | 16.1 | 0.00 | 0.05 | 0.05 | 85 | 1012.0 |
| 20260506184004 | 17 | 141 | 8.0 | 19.3 | 0.00 | 0.05 | 0.05 | 85 | 1012.1 |
| 20260506183004 | 17 | 147 | 8.0 | 19.3 | 0.00 | 0.05 | 0.05 | 85 | 1011.9 |
| 20260506182504 | 17 | 160 | 9.7 | 14.5 | 0.00 | 0.05 | 0.05 | 85 | 1011.7 |
| 20260506182004 | 18 | 164 | 8.0 | 19.3 | 0.00 | 0.05 | 0.05 | 85 | 1011.5 |
| 20260506181504 | 18 | 138 | 8.0 | 19.3 | 0.00 | 0.05 | 0.05 | 85 | 1011.4 |
| 20260506181004 | 18 | 134 | 8.0 | 16.1 | 0.00 | 0.05 | 0.05 | 85 | 1011.4 |
| 20260506180504 | 18 | 129 | 8.0 | 19.3 | 0.00 | 0.05 | 0.05 | 85 | 1011.2 |
| 20260506180005 | 18 | 140 | 11.3 | 24.1 | 0.00 | 0.05 | 0.05 | 86 | 1011.2 |
| 20260506175504 | 18 | 134 | 9.7 | 19.3 | 0.00 | 0.05 | 0.05 | 86 | 1011.1 |
| 20260506175004 | 18 | 124 | 8.0 | 19.3 | 0.00 | 0.05 | 0.05 | 87 | 1011.1 |